Crane Lake, MN

5:12 AM CST on February 10, 2016 (GMT -0600)
Crane Lake

Weather History for KCDD - November, 2012

Change the Weather History Date:

Wednesday, November 28, 2012

  Actual Average Record
Temperature  
Mean Temperature 12 °F -  
Max Temperature 23 °F 28 °F 41 °F (1998)
Min Temperature 1 °F 14 °F -2 °F (2010)
Degree Days  
Heating Degree Days 53    
Moisture  
Dew Point 9 °F    
Average Humidity 85    
Maximum Humidity 93    
Minimum Humidity 73    
Precipitation  
Precipitation 0.00 in - - ()
Sea Level Pressure  
Sea Level Pressure 30.15 in    
Wind  
Wind Speed 4 mph (SW)    
Max Wind Speed 8 mph    
Max Gust Speed -    
Visibility 9 miles    
Events Snow    
Averages and records for this station are not official NWS values.
T = Trace of Precipitation, MM = Missing Value Source: NWS Daily Summary

Daily Weather History Graph

Daily Weather History Graph

Search for Another Location

Airport or City:

Trip Planner

Search our weather history database for the weather conditions in past years. The results will help you decide how hot, cold, wet, or windy it might be!

Date:

Astronomy

Nov. 28, 2012 Rise Set
Actual Time 7:36 AM CST 4:19 PM CST
Civil Twilight 7:01 AM CST 4:54 PM CST
Nautical Twilight 6:21 AM CST 5:33 PM CST
Astronomical Twilight 5:44 AM CST 6:11 PM CST
Moon 4:34 PM CST (11/28) 7:34 AM CST (11/28)
Length of Visible Light 9h 53m
Length of Day
8h 42m
Full, 100% of the Moon is Illuminated
Nov 28
Full
Dec 6
Last Quarter
Dec 13
New
Dec 19
First Quarter
Dec 28
Full

Hourly Weather History & Observations

Time (CST) Temp. Windchill Dew Point Humidity Pressure Visibility Wind Dir Wind Speed Gust Speed Precip Events Conditions
12:05 AM 6.8 °F -0.1 °F 3.2 °F 85% 30.21 in 7.0 mi West 3.5 mph - N/A Snow Light Snow
12:26 AM 6.8 °F -4.8 °F 3.2 °F 85% 30.22 in 7.0 mi WSW 6.9 mph - N/A   Overcast
12:45 AM 6.8 °F -2.0 °F 3.2 °F 85% 30.23 in 7.0 mi West 4.6 mph - N/A   Overcast
1:05 AM 6.8 °F -0.1 °F 1.4 °F 79% 30.22 in 7.0 mi West 3.5 mph - N/A   Overcast
1:25 AM 5.0 °F -5.6 °F 1.4 °F 85% 30.23 in 10.0 mi WSW 5.8 mph - N/A   Overcast
1:45 AM 5.0 °F -5.6 °F 1.4 °F 85% 30.23 in 10.0 mi WSW 5.8 mph - N/A   Overcast
2:05 AM 5.0 °F -5.6 °F 1.4 °F 85% 30.24 in 10.0 mi WSW 5.8 mph - N/A   Overcast
2:45 AM 5.0 °F -5.6 °F 1.4 °F 85% 30.24 in 10.0 mi WSW 5.8 mph - N/A   Overcast
3:05 AM 5.0 °F -5.6 °F -0.4 °F 78% 30.24 in 10.0 mi SW 5.8 mph - N/A   Overcast
3:25 AM 3.2 °F -9.1 °F -0.4 °F 85% 30.25 in 7.0 mi WSW 6.9 mph - N/A   Overcast
3:45 AM 3.2 °F -7.8 °F -0.4 °F 85% 30.24 in 10.0 mi SW 5.8 mph - N/A   Overcast
4:05 AM 3.2 °F -7.8 °F -0.4 °F 85% 30.25 in 10.0 mi WSW 5.8 mph - N/A   Overcast
4:25 AM 3.2 °F -6.2 °F -0.4 °F 85% 30.26 in 10.0 mi WSW 4.6 mph - N/A   Mostly Cloudy
4:45 AM 3.2 °F - -0.4 °F 85% 30.26 in 10.0 mi Calm Calm - N/A   Overcast
5:05 AM 3.2 °F - -0.4 °F 85% 30.26 in 10.0 mi Calm Calm - N/A   Overcast
5:25 AM 3.2 °F - -0.4 °F 85% 30.25 in 10.0 mi Calm Calm - N/A   Overcast
5:45 AM 3.2 °F - -0.4 °F 85% 30.25 in 10.0 mi Calm Calm - N/A   Overcast
6:05 AM 3.2 °F - -0.4 °F 85% 30.25 in 10.0 mi Calm Calm - N/A   Overcast
6:25 AM 3.2 °F -4.2 °F -0.4 °F 85% 30.25 in 7.0 mi WSW 3.5 mph - N/A Snow Light Snow
6:45 AM 3.2 °F - -0.4 °F 85% 30.26 in 10.0 mi Calm Calm - N/A   Overcast
7:05 AM 3.2 °F - -0.4 °F 85% 30.25 in 7.0 mi Calm Calm - N/A   Overcast
7:25 AM 1.4 °F - -0.4 °F 92% 30.24 in 3.0 mi Calm Calm - N/A Snow Light Snow
7:45 AM 1.4 °F - -0.4 °F 92% 30.24 in 7.0 mi Calm Calm - N/A Snow Light Snow
8:05 AM 3.2 °F - -0.4 °F 85% 30.24 in 5.0 mi Calm Calm - N/A Snow Light Snow
8:25 AM 3.2 °F - 1.4 °F 92% 30.24 in 4.0 mi Calm Calm - N/A Snow Light Snow
8:45 AM 5.0 °F - 1.4 °F 85% 30.23 in 4.0 mi Calm Calm - N/A Snow Light Snow
9:05 AM 6.8 °F -0.1 °F 1.4 °F 79% 30.23 in 3.0 mi South 3.5 mph - N/A Snow Light Snow
9:25 AM 6.8 °F -3.5 °F 3.2 °F 85% 30.23 in 3.0 mi South 5.8 mph - N/A Snow Light Snow
9:45 AM 8.6 °F 0.1 °F 3.2 °F 79% 30.23 in 2.5 mi South 4.6 mph - N/A Snow Light Snow
10:05 AM 8.6 °F 0.1 °F 3.2 °F 79% 30.23 in 2.5 mi South 4.6 mph - N/A Snow Light Snow
10:25 AM 10.4 °F 2.2 °F 5.0 °F 79% 30.21 in 4.0 mi South 4.6 mph - N/A Snow Light Snow
10:45 AM 10.4 °F 0.8 °F 6.8 °F 85% 30.19 in 5.0 mi SSW 5.8 mph - N/A Snow Light Snow
11:05 AM 12.2 °F 2.9 °F 6.8 °F 79% 30.18 in 7.0 mi SSW 5.8 mph - N/A Snow Light Snow
11:25 AM 14.0 °F 5.1 °F 6.8 °F 73% 30.18 in 10.0 mi SW 5.8 mph - N/A Snow Light Snow
11:45 AM 14.0 °F 3.9 °F 6.8 °F 73% 30.17 in 10.0 mi South 6.9 mph - N/A Snow Light Snow
12:05 PM 15.8 °F 7.2 °F 8.6 °F 73% 30.16 in 10.0 mi South 5.8 mph - N/A   Scattered Clouds
12:25 PM 15.8 °F 5.1 °F 8.6 °F 73% 30.16 in 10.0 mi SSW 8.1 mph - N/A   Scattered Clouds
12:45 PM 15.8 °F 8.6 °F 8.6 °F 73% 30.14 in 10.0 mi South 4.6 mph - N/A   Mostly Cloudy
1:05 PM 15.8 °F 7.2 °F 10.4 °F 79% 30.13 in 10.0 mi South 5.8 mph - N/A Snow Light Snow
1:25 PM 17.6 °F 10.7 °F 10.4 °F 73% 30.11 in 10.0 mi South 4.6 mph - N/A   Mostly Cloudy
1:45 PM 19.4 °F 11.5 °F 12.2 °F 74% 30.09 in 10.0 mi South 5.8 mph - N/A   Scattered Clouds
2:05 PM 19.4 °F 12.8 °F 12.2 °F 74% 30.07 in 10.0 mi South 4.6 mph - N/A   Mostly Cloudy
2:25 PM 19.4 °F 14.3 °F 14.0 °F 80% 30.05 in 10.0 mi SSE 3.5 mph - N/A   Overcast
2:45 PM 21.2 °F 12.6 °F 15.8 °F 80% 30.03 in 10.0 mi South 6.9 mph - N/A   Mostly Cloudy
3:05 PM 19.4 °F 10.4 °F 15.8 °F 86% 30.02 in 10.0 mi South 6.9 mph - N/A   Clear
3:25 PM 21.2 °F 14.9 °F 17.6 °F 86% 30.02 in 10.0 mi South 4.6 mph - N/A   Clear
3:45 PM 19.4 °F 12.8 °F 15.8 °F 86% 30.03 in 10.0 mi SSW 4.6 mph - N/A   Clear
4:05 PM 19.4 °F - 15.8 °F 86% 30.02 in 10.0 mi Calm Calm - N/A   Clear
4:25 PM 19.4 °F 11.5 °F 15.8 °F 86% 30.01 in 10.0 mi South 5.8 mph - N/A   Clear
4:45 PM 17.6 °F - 15.8 °F 93% 30.03 in 10.0 mi Calm Calm - N/A   Clear
5:05 PM 17.6 °F - 15.8 °F 93% 30.04 in 10.0 mi Calm Calm - N/A   Mostly Cloudy
5:25 PM 17.6 °F - 15.8 °F 93% 30.05 in 10.0 mi Calm Calm - N/A   Overcast
5:45 PM 19.4 °F - 15.8 °F 86% 30.05 in 10.0 mi Calm Calm - N/A   Overcast
6:05 PM 19.4 °F - 15.8 °F 86% 30.06 in 10.0 mi Calm Calm - N/A   Overcast
6:25 PM 19.4 °F - 17.6 °F 93% 30.06 in 10.0 mi Calm Calm - N/A   Overcast
6:45 PM 19.4 °F - 17.6 °F 93% 30.06 in 10.0 mi Calm Calm - N/A   Overcast
7:05 PM 19.4 °F - 17.6 °F 93% 30.06 in 10.0 mi Calm Calm - N/A   Overcast
7:45 PM 19.4 °F - 17.6 °F 93% 30.06 in 10.0 mi Calm Calm - N/A   Overcast
8:05 PM 21.2 °F - 17.6 °F 86% 30.06 in 10.0 mi Calm Calm - N/A   Overcast
8:25 PM 21.2 °F - 19.4 °F 93% 30.07 in 10.0 mi Calm Calm - N/A   Overcast
8:45 PM 21.2 °F - 19.4 °F 93% 30.06 in 10.0 mi Calm Calm - N/A   Overcast
9:05 PM 21.2 °F - 19.4 °F 93% 30.06 in 10.0 mi Calm Calm - N/A   Overcast
9:25 PM 21.2 °F - 17.6 °F 86% 30.06 in 10.0 mi Calm Calm - N/A   Overcast
9:45 PM 21.2 °F - 17.6 °F 86% 30.07 in 10.0 mi Calm Calm - N/A   Overcast
10:05 PM 21.2 °F - 19.4 °F 93% 30.07 in 10.0 mi Calm Calm - N/A   Overcast
10:25 PM 21.2 °F 16.4 °F 19.4 °F 93% 30.08 in 10.0 mi NW 3.5 mph - N/A   Overcast
10:45 PM 23.0 °F 18.4 °F 21.2 °F 93% 30.08 in 10.0 mi NNW 3.5 mph - N/A   Overcast
11:05 PM 23.0 °F 15.8 °F 19.4 °F 86% 30.10 in 10.0 mi NNW 5.8 mph - N/A   Overcast
11:25 PM 21.2 °F 14.9 °F 19.4 °F 93% 30.11 in 10.0 mi NNW 4.6 mph - N/A   Overcast
11:45 PM 21.2 °F 13.6 °F 17.6 °F 86% 30.12 in 10.0 mi NNW 5.8 mph - N/A   Overcast